Flag for Canada Weather past 2 weeks in Prince George, British Columbia, Canada

Now
36 °F

Passing clouds.


Feels Like: 30 °F
Forecast: 19 / 29 °F
Wind: 7 mph from North

Location: Prince George

Current Time: Feb 26, 2015 at 5:08:31 PM

Latest Report: Feb 26, 2015 at 4:00 PM


Visibility: 9 mi

Pressure: 30.13 "Hg

Humidity: 70%

Dew point: 27 °F

Location of Prince GeorgeLocation

Historic Weather in Prince George — Graph

°F

Prince George temperature yesterday

Maximum temperature yesterday: 41 °F (at 4:00 PM)
Minimum temperature yesterday: 21 °F (at 7:00 AM)
Average temperature yesterday: 29 °F

Past Weeks' High & Low Weather Summary

 TemperatureHumidityPressure
High45 °F (Feb 24, 3:00 PM)100% (Feb 11, 4:00 PM)30.65 "Hg (Feb 11, 4:00 PM)
Low19 °F (Feb 18, 1:00 AM)39% (Feb 24, 3:00 AM)30.03 "Hg (Feb 18, 2:00 PM)
Average32 °F83%30.32 "Hg
* Reported Feb 11 4:00 PM — Feb 26 4:00 PM, Prince George, Weather by CustomWeather, © 2015

Note: Actual official high and low records may vary slightly from our data, if they occured in-between our weather recording intervals... More about our weather records

Advertising

Prince George weather history for previous 24 hours

 ConditionsComfort  
Time TempWeatherWind HumidityBarometerVisibility
4:00 PM
Thu, Feb 26
36 °FPassing clouds.7 mph70%30.13 "Hg9 mi
3:00 PM36 °FOvercast.7 mph75%30.14 "Hg9 mi
2:00 PM36 °FMostly cloudy.5 mph70%30.15 "Hg9 mi
1:00 PM34 °FScattered clouds.3 mph70%30.16 "Hg9 mi
12:00 PM32 °FPassing clouds.2 mph75%30.19 "Hg9 mi
11:00 AM30 °FIce fog.3 mph86%30.21 "Hg3 mi
10:46 AM28 °FIce fog.5 mph93%30.21 "Hg5 mi
10:00 AM28 °FLight snow. Cloudy.3 mph86%30.21 "Hg5 mi
9:56 AM28 °FLight snow. Mostly cloudy.3 mph86%30.21 "Hg5 mi
9:00 AM27 °FOvercast.5 mph93%30.21 "Hg9 mi
8:00 AM25 °FBroken clouds.3 mph93%30.21 "Hg9 mi
7:02 AM25 °FMostly cloudy.No wind93%30.21 "Hg9 mi
6:00 AM23 °FOvercast.No wind93%30.23 "Hg9 mi
5:00 AM23 °FMostly cloudy.No wind93%30.22 "Hg9 mi
4:00 AM23 °FOvercast.No wind93%30.23 "Hg9 mi
3:00 AM23 °FPassing clouds.2 mph93%30.24 "Hg9 mi
2:00 AM23 °FPassing clouds.2 mph93%30.24 "Hg9 mi
1:00 AM23 °FPassing clouds.No wind93%30.25 "Hg9 mi
12:00 AM23 °FClear.2 mph93%30.27 "Hg9 mi
11:00 PM
Wed, Feb 25
23 °FClear.2 mph93%30.27 "Hg9 mi
10:00 PM25 °FPassing clouds.No wind86%30.28 "Hg9 mi
9:00 PM27 °FPassing clouds.No wind86%30.29 "Hg9 mi
8:00 PM28 °FPassing clouds.No wind80%30.30 "Hg9 mi
7:00 PM28 °FPassing clouds.3 mph80%30.30 "Hg9 mi
6:00 PM28 °FPassing clouds.3 mph80%30.31 "Hg9 mi
5:00 PM37 °FSunny.3 mph52%30.29 "Hg9 mi
Weather by CustomWeather, © 2015

See weather overviewHow to use our weather pages